This is the latest recevied weather packets stored in our database for station/object KP4OZ. If no packets are shown the sender has not sent any weather packets the latest 1 day(s).
| Time | Temp. | Humidity | Pressure | Rain* | Wind** | Luminosity | Snow |
|---|---|---|---|---|---|---|---|
| 1778005440 | 34.44° C | 48% | 1016.1 hPa | 0 mm | 2.24 m/s, 102° | - | - |
| 1778005137 | 33.89° C | 50% | 1016.2 hPa | 0 mm | 0.89 m/s, 197° | - | - |
| 1778004834 | 34.44° C | 49% | 1016.4 hPa | 0 mm | 4.02 m/s, 111° | - | - |
| 1778004531 | 33.89° C | 49% | 1016.3 hPa | 0 mm | 1.79 m/s, 163° | - | - |
| 1778004227 | 33.89° C | 50% | 1016.5 hPa | 0 mm | 3.58 m/s, 198° | - | - |
| 1778003924 | 33.33° C | 51% | 1016.4 hPa | 0 mm | 2.24 m/s, 137° | - | - |
| 1778003620 | 33.89° C | 51% | 1016.6 hPa | 0 mm | 0.89 m/s, 195° | - | - |
| 1778003317 | 33.89° C | 51% | 1016.5 hPa | 0 mm | 1.79 m/s, 132° | - | - |
| 1778003015 | 34.44° C | 50% | 1016.5 hPa | 0 mm | 1.34 m/s, 73° | - | - |
| 1778002710 | 33.89° C | 51% | 1016.8 hPa | 0 mm | 3.58 m/s, 121° | - | - |
| 1778002407 | 33.33° C | 51% | 1016.7 hPa | 0 mm | 4.02 m/s, 128° | - | - |
| 1778002104 | 33.89° C | 51% | 1017 hPa | 0 mm | 1.34 m/s, 156° | - | - |
| 1778001802 | 33.89° C | 51% | 1017.1 hPa | 0 mm | 2.68 m/s, 189° | - | - |
| 1778001501 | 33.89° C | 53% | 1017 hPa | 0 mm | 2.68 m/s, 220° | - | - |
| 1778001199 | 34.44° C | 51% | 1016.8 hPa | 0 mm | 1.34 m/s, 191° | - | - |
| 1778000894 | 33.89° C | 51% | 1017.1 hPa | 0 mm | 1.34 m/s, 127° | - | - |
| 1778000592 | 33.89° C | 50% | 1017 hPa | 0 mm | 3.58 m/s, 254° | - | - |
| 1778000287 | 33.89° C | 50% | 1017.1 hPa | 0 mm | 2.68 m/s, 121° | - | - |
| 1777999983 | 33.89° C | 52% | 1017.2 hPa | 0 mm | 2.68 m/s, 123° | - | - |
| 1777999679 | 33.89° C | 52% | 1017.1 hPa | 0 mm | 1.79 m/s, 120° | - | - |
| 1777999376 | 33.89° C | 50% | 1017.4 hPa | 0 mm | 2.68 m/s, 157° | - | - |
| 1777999074 | 33.89° C | 52% | 1017.3 hPa | 0 mm | 2.68 m/s, 152° | - | - |
| 1777998773 | 33.89° C | 51% | 1017.3 hPa | 0 mm | 1.34 m/s, 126° | - | - |
| 1777998470 | 33.89° C | 50% | 1017.2 hPa | 0 mm | 4.02 m/s, 179° | - | - |
| 1777998167 | 33.89° C | 52% | 1017.4 hPa | 0 mm | 1.79 m/s, 151° | - | - |
* Rain latest hour (hover to see other rain measurements)
** Current wind speed in m/s (hover to see current wind gust speed)